OBJECT H, 63298

Orbit data source: Space-Track

You're viewing an Uncataloged Satellite

Recently launched and/or uncataloged satellites may have evolving metadata. Metadata may include but not limited to: Owner, Maufacturer, Bus, Motor, and Mission.

OBJECT H, 63298 is a Chinese satellite in SSO that was launched on Mon, 17 Mar 2025 UTC via a GUSHENXING 1 launch vehicle from the Jiuquan Satellite Launch Center, China (JSC). Unknown objects in Earth's orbit typically refer to objects detected orbiting the Earth but have not yet been identified or cataloged. These objects could be anything from previously untracked satellites, spent rocket stages, debris from satellite collisions, or even natural meteoroids temporarily captured by Earth's gravity.

Loading next visibility...
Identifier
63298, 2025-055H
Orbit
SSO
Last TLE update
4 hours ago
Origin
Flag of CNZHWK/JIG (CN / PRC)
Manufacturer
ZHWK/HITSAT
Mission
Operational Commercial Imaging
Bus & Motor
ZK1, Unknown motor
Mass
~250 kg wet, ~250 kg dry
Launch date (UTC)
2025-03-17 (4 months ago)
Launch vehicle
GUSHENXING 1
Launch site
Jiuquan Satellite Launch Center, China (JSC)
Object type
Unknown
Shape & HBR
Box + 3 Pan, 6 m
Radar Cross Section
3.533 m², Medium (>0.1 m² and < 1m²)

Expand to show TLE details & history

TLE from 4 hours ago
0 OBJECT H
1 63298U 25055H   25190.18068087  .00011373  00000-0  62270-3 0  9995
2 63298  97.6126 325.1776 0010186 258.4387 101.5701 15.14353304 17175
Epoch: 2025-07-09T04:20Z
TLE epoch observation values (Epoch: 2025-07-09T04:20:10.827Z)
Latitude
-0.00001°
Longitude
-27.23252°
Altitude
527.436 km
Speed
7.599 km/s
True Right ascension
21h 40m 42s
True Declination
0° 00' 00"
Sunlit
Object was in full shadow at epoch
Visualization orbit readout
Latitude
57.55644°
Longitude
164.99137°
Altitude
537.71 km
Speed
7.596 km/s
Apparent Right ascension
09h 11m 14s
Apparent Declination
11° 56' 19"
Sunlit
Object is in daylight
Visualization observer readout
Local Sidereal Time
20:12:16
Azimuth
341.988° N
Elevation
-36.367°
Doppler factor
1
Orbital elements
Apogee altitude
526.951 km
Perigee altitude
512.899 km
Semi-major axis
6,898.062 km
Eccentricity
0.00102
Inclination
97.6126°
RAAN
325.1776°
Arg. of periapsis
258.4387°
True anomaly
Unknown
Mean anomaly
101.5701°
Eccentric anomaly
Unknown
Mean motion
3.78837 °/min
Orbital period
95.03 mins
BSTAR
0.0006227
Loading maneuver chart data...
Loading SW <> Apogee altitude chart data...
Loading historical data...
Loading historical data...
Loading historical data...
Loading historical data...
Loading historical data...
Loading historical data...
Loading historical data...

OBJECT H Visibility forecast

Observer location: undefined°, undefined°

Span
Click to sort rows by Start time (UTC) header in descending order
Start Az.
Max El. time (UTC)
Max El. Az.
Max El.
End time (UTC)
End Az.
7 mins2025-07-09 09:12:40.571Z176.308° S2025-07-09 09:15:40.571Z214.266° SW40.409°2025-07-09 09:19:40.571Z341.457° N
5 mins2025-07-09 22:21:40.571Z340.723° N2025-07-09 22:23:40.571Z275.894° WNW32.668°2025-07-09 22:26:40.571Z218.541° SW
|